カタログに戻る

STARLINK-33779

運用中通信VLEO
NORAD 63880·PAYLOAD·🇺🇸 United States

打ち上げ May 10, 2025 から Vandenberg Space Force Base

Loading…

次のパス (今後24時間)

TLE

最新Source: CelesTrak SupGP

元期: Sep 15, 2026, 03:16 UTC

1 63880C 25094S   26258.13659722 -.00007334  00000+0 -25524-3 0  2580
2 63880  69.9985 115.3711 0003586 269.9689 188.5115 15.29567922    11

AllMySatでSTARLINK-33779をリアルタイム追跡

Download on the App Store